Weather Roundup
Issued by NWS

Home | Current Version | Previous Version | Graphics & Text | Print | Product List | Glossary Off
Versions: 1 2 3 4 5 6 7 8 9 10 11 12 13 14 15 16 17 18 19 20 21 22 23 24 25 26 27 28 29 30 31 32 33 34 35 36 37 38 39 40 41 42 43 44 45 46 47 48 49 50

121
NZUS93 KARX 101859
HRRWXR

CURRENT HOURLY OBSERVATIONS ACROSS
MUCH OF THE UPPER MISSISSIPPI VALLEY
NATIONAL WEATHER SERVICE LA CROSSE WI
100 PM CST WED FEB 10 2016


...SOUTHEAST MINNESOTA...


CITY           SKY/WX    TMP DP  RH WIND       PRES   REMARKS
ROCHESTER      CLOUDY     9  -3  58 N9        30.04F WCI  -4
ROCHESTER/MAYO CLOUDY     9  -1  65 NW3       30.06F
WINONA         SUNNY     12   0  57 NW3       30.11F
AUSTIN         CLOUDY     9  -2  61 NW7       30.05F WCI  -3
ALBERT LEA     CLOUDY    10   1  67 E3        30.06S
DODGE CENTER   CLOUDY    10  -2  56 N8        30.05S WCI  -1
PRESTON        CLOUDY     7  -5  57 N7        30.04F WCI  -4
OWATONNA       MOSUNNY   10  -2  56 NW5       30.07S WCI   2
FARIBAULT        N/A     10  -2  56 N6        30.08F WCI   1
$$

...ELSEWHERE IN MINNESOTA...


CITY           SKY/WX    TMP DP  RH WIND       PRES   REMARKS
MINNEAPOLIS    CLOUDY    10  -4  53 NW6       30.11F WCI   0
INTNL FALLS    CLOUDY    -2 -13  59 N7        30.15F WCI -15
DULUTH         MOSUNNY    7  -9  48 N7        30.06S WCI  -5
RED WING       MOSUNNY    9  -6  52 NW5       30.11F WCI   0
REDWOOD FALLS  CLOUDY    11   4  73 SE5       30.08F WCI   3
MANKATO        CLOUDY    10   0  61 CALM      30.08F
WORTHINGTON    CLOUDY    10   5  79 E14       30.00R WCI  -5
FAIRMONT       CLOUDY    10   3  72 NE7       30.05S WCI   0
$$

...SOUTHWEST WISCONSIN...


CITY           SKY/WX    TMP DP  RH WIND       PRES   REMARKS
LA CROSSE      SUNNY      9  -3  58 W9        30.09F WCI  -4
PRAIRIE DU CHI CLOUDY    12  -4  48 CALM      30.08F
BOSCOBEL       CLOUDY    14  -3  47 N3        30.07F
LONE ROCK      NOT AVBL
PLATTEVILLE    MOSUNNY   11   0  60 NW7       30.03F WCI   0
FORT MC COY    SUNNY     11  -2  56 N6        30.07F WCI   2
VIROQUA        FAIR      10  -3  57 N8        30.02F WCI  -3
WIS DELLS      SUNNY     11  -4  50 N9        30.02F WCI  -1
$$

...ELSEWHERE IN WISCONSIN...


CITY           SKY/WX    TMP DP  RH WIND       PRES   REMARKS
MILWAUKEE      MOSUNNY   15  -2  46 NW12      30.00F WCI   2
MADISON        MOSUNNY   12  -2  53 N12       30.02F WCI  -2
GREEN BAY      SUNNY     11  -4  51 NW14G22   30.01S WCI  -5
EAU CLAIRE     NOT AVBL
BLACK RVR FLS  FAIR      11  -4  50 NW7       30.07F WCI   0
MEDFORD        PTSUNNY    8  -3  62 NW7       29.99F WCI  -4
WAUSAU         PTSUNNY   11  -3  53 NW12G17   29.99S WCI  -3
WIS RAPIDS     MOSUNNY   10  -4  53 N13       30.04S WCI  -5
MARSHFIELD     PTSUNNY    9  -4  55 NW8       30.00F WCI  -3
RICE LAKE      MOSUNNY    7  -3  64 W6        30.10S WCI  -3
$$

...NORTHEAST IOWA...


CITY           SKY/WX    TMP DP  RH WIND       PRES   REMARKS
WATERLOO       CLOUDY    13   1  59 N6        30.08F WCI   4
DUBUQUE        CLOUDY    13   0  56 NW5       30.03F WCI   5
DECORAH        CLOUDY     9  -6  52 NW5       30.04F WCI   0
MASON CITY     FLURRIES  10   3  73 CALM      30.07F
CHARLES CITY   CLOUDY     9   0  66 CALM      30.07F
OELWEIN        CLOUDY    10   0  61 NW6       30.07F WCI   1
$$

...ELSEWHERE IN IOWA...


CITY           SKY/WX    TMP DP  RH WIND       PRES   REMARKS
DES MOINES     FLURRIES  19  12  74 E8        30.04F WCI   9
IOWA CITY      CLOUDY    16   2  54 CALM      30.10F
FORT DODGE     CLOUDY    14   7  73 E13       30.04F WCI   0
MARSHALLTOWN   LGT SNOW  13   7  77 E5        30.06F WCI   5
CEDAR RAPIDS   CLOUDY    15   4  61 NW8       30.07F WCI   4
$$

...NORTHERN ILLINOIS...


CITY           SKY/WX    TMP DP  RH WIND       PRES   REMARKS
CHICAGO-OHARE  PTSUNNY   15   3  59 W13       30.01F WCI   1
CHICAGO-MIDWAY MOSUNNY   17   2  51 W12       30.02F WCI   4
MOLINE         CLOUDY    19   4  51 NW10      30.08F WCI   7
ROCKFORD       PTSUNNY   15   2  56 NW13      30.05F WCI   1
PEORIA         CLOUDY    19   1  45 W8        30.08F WCI   9
$$

NOTE: "FAIR" INDICATES FEW OR NO CLOUDS BELOW 12,000 FEET WITH NO
SIGNIFICANT WEATHER AND/OR OBSTRUCTIONS TO VISIBILITY. WIND
SPEEDS ARE IN MILES-PER-HOUR.




USA.gov is the U.S. government's official web portal to all federal, state and local government web resources and services.